Regional Weather Roundup
Issued by NWS

Home | Current Version | Previous Version | Text Only | Print | Product List | Glossary On
Versions: 1 2 3 4 5 6 7 8 9 10 11 12 13 14 15 16 17 18 19 20 21 22 23 24 25 26 27 28 29 30 31 32 33 34 35 36 37 38 39 40 41 42 43 44 45 46 47 48 49 50
000
ASUS43 KDMX 222307
RWRIA

WEATHER ROUNDUP FOR IOWA
NATIONAL WEATHER SERVICE DES MOINES IA
600 PM CDT FRI MAY 22 2015

NOTE: "FAIR" INDICATES FEW OR NO CLOUDS BELOW 12,000 FEET WITH NO
SIGNIFICANT WEATHER AND/OR OBSTRUCTIONS TO VISIBILITY.

* - THESE STATIONS ARE NOT NWS STATIONS...THUS NOT UNDER NWS
QUALITY CONTROL.  THEY ALSO DO NOT REPORT WEATHER SUCH
AS PRECIPITATION OR FOG.

IAZ001>003-012>014-020>022-031>034-043>046-230000-
   NORTHWEST IOWA

CITY           SKY/WX    TMP DP  RH WIND       PRES   REMARKS
CARROLL *      MOSUNNY   72  39  30 SW15      30.18S
CHEROKEE *     CLOUDY    68  43  40 SW12      30.18R
DENISON *      SUNNY     63  43  48 SW18G28   30.20R
LE MARS *      SUNNY     70  39  32 SW14      30.19R
ORANGE CITY *  SUNNY     68  39  34 SW15      30.18S
SHELDON *      SUNNY     72  32  23 S9        30.15F
SIOUX CITY     CLOUDY    65  41  41 SW20      30.21R
SPENCER        CLOUDY    73  33  23 CALM      30.17F
STORM LAKE *   SUNNY     70  39  32 SW14G21   30.19S
$$

IAZ055>058-069>071-079>083-090>094-230000-
   SOUTHWEST IOWA

CITY           SKY/WX    TMP DP  RH WIND       PRES   REMARKS
ATLANTIC *     CLOUDY    61  48  63 SW10      30.22S
AUDUBON *      SUNNY     64  45  48 SW13      30.23R
CLARINDA *     SUNNY     66  50  55 CALM      30.23F
COUNCIL BLFS * MOSUNNY   64  45  48 E7        30.21F
CRESTON *      CLOUDY    63  50  63 SW12      30.23S
HARLAN  *      PTSUNNY   59  50  72 S12       30.26S
LAMONI         LGT RAIN  65  53  65 SW10      30.23S
RED OAK *      MOSUNNY   66  48  52 E5        30.21F
SHENANDOAH *   MOSUNNY   68  45  42 S12       30.21F
$$

IAZ047>049-059>061-072>074-084-230000-
   CENTRAL IOWA

CITY           SKY/WX    TMP DP  RH WIND       PRES   REMARKS
AMES           CLOUDY    73  36  25 SW3       30.18F
ANKENY *       SUNNY     72  41  33 SW7       30.19R
CHARITON *     SUNNY     68  52  56 W7        30.21S
DES MOINES     CLOUDY    74  39  28 SW6       30.19S
GRINNELL*      CLOUDY    72  36  26 NW5       30.20S
KNOXVILLE *    SUNNY     73  45  35 SW6       30.19R
MARSHALLTOWN   CLOUDY    72  41  32 W3        30.17F
PELLA *        CLOUDY    73  48  40 CALM      30.21S
PERRY *          N/A     73  37  27 SW7       30.18F
$$

IAZ004>006-015-016-023>025-035-036-230000-
   NORTH CENTRAL IOWA

CITY           SKY/WX    TMP DP  RH WIND       PRES   REMARKS
ALGONA *       SUNNY     72  37  28 SE6       30.19S
CLARION *      SUNNY     73  28  19 W3        30.19S
ESTHERVILLE    CLOUDY    71  33  24 S7        30.17F
FORT DODGE *   CLOUDY    70  45  40 CALM      30.19S
MASON CITY     CLOUDY    73  38  27 SW3       30.19F
FOREST CITY *  SUNNY     68  46  45 CALM      30.18F
IOWA FALLS *     N/A     73  32  21 W7        30.19F
$$

IAZ007>011-017>019-026>030-037>042-050>054-066-230000-
   NORTHEAST IOWA

CITY           SKY/WX    TMP DP  RH WIND       PRES   REMARKS
CEDAR RAPIDS   CLOUDY    73  35  25 SW7       30.19S
CHARLES CITY * SUNNY     73  34  23 SE6G12    30.19F
CLINTON *      CLOUDY    75  37  25 NW5       30.21F
DECORAH *      SUNNY     72  32  23 CALM      30.19S
DUBUQUE        CLOUDY    70  43  37 S3        30.20F
MONTICELLO *   SUNNY     75  37  25 SW5       30.19S
OELWEIN *      SUNNY     73  37  27 W7        30.20S
WATERLOO       CLOUDY    73  41  31 CALM      30.18S
$$

IAZ064-065-067-068-078-230000-
   EAST CENTRAL IOWA

CITY           SKY/WX    TMP DP  RH WIND       PRES   REMARKS
DAVENPORT      PTSUNNY   75  31  19 CALM      30.20R
IOWA CITY      CLOUDY    74  40  29 CALM      30.20S
MT. PLEASANT * CLOUDY    73  32  21 W3        30.20S
MUSCATINE *    SUNNY     75  37  25 NW8       30.19S
QUAD CITIES    MOSUNNY   73  38  27 SW6       30.18S
$$

IAZ062-063-075>077-085>089-095>099-230000-
   SOUTHEAST IOWA

CITY           SKY/WX    TMP DP  RH WIND       PRES   REMARKS
BURLINGTON     CLOUDY    73  41  31 SW5       30.19S
FAIRFIELD *    SUNNY     73  37  27 CALM      30.20S
FORT MADISON * SUNNY     72  43  35 CALM      30.21S
KEOKUK *       SUNNY     72  48  43 CALM      30.20S
OSKALOOSA *      N/A     73  36  25 W8        30.20S
CENTERVILLE *  SUNNY     66  66 100 SW7       30.23S
OTTUMWA        CLOUDY    72  47  40 NW5       30.19R
WASHINGTON *   SUNNY     73  32  21 W7        30.21S
$$

ABBREVIATIONS USED IN REMARKS
   TC - TEMPERATURES IN CELSIUS
  WCI - WIND CHILL INDEX
   HX - HEAT INDEX
  VSB - VISIBILITY
$$



USA.gov is the U.S. government's official web portal to all federal, state and local government web resources and services.